This is the latest recevied weather packets stored in our database for station/object BM2MWA-13. If no packets are shown the sender has not sent any weather packets the latest 10 day(s).
| Time | Temp. | Humidity | Pressure | Rain* | Wind** | Luminosity | Snow |
|---|---|---|---|---|---|---|---|
| 1787624224 | 28.89° C | 77% | 1002.9 hPa | 0 mm | - | - | - |
| 1787623624 | 28.33° C | 79% | 1002.9 hPa | 0 mm | - | - | - |
| 1787623024 | 28.33° C | 79% | 1003 hPa | 0 mm | - | - | - |
| 1787622424 | 28.33° C | 81% | 1003 hPa | 0 mm | - | - | - |
| 1787621823 | 28.33° C | 83% | 1003 hPa | 0 mm | - | - | - |
| 1787621224 | 28.33° C | 81% | 1003.1 hPa | 0 mm | - | - | - |
| 1787620625 | 28.33° C | 83% | 1003 hPa | 0 mm | - | - | - |
| 1787620024 | 28.33° C | 83% | 1003.1 hPa | 0 mm | - | - | - |
| 1787619424 | 28.33° C | 83% | 1003 hPa | 0 mm | - | - | - |
| 1787618823 | 28.33° C | 81% | 1003 hPa | 0 mm | - | - | - |
| 1787618224 | 28.33° C | 81% | 1002.8 hPa | 0 mm | - | - | - |
| 1787617624 | 28.33° C | 79% | 1002.8 hPa | 0 mm | - | - | - |
| 1787617024 | 28.33° C | 81% | 1002.7 hPa | 0 mm | - | - | - |
| 1787616424 | 28.33° C | 82% | 1002.7 hPa | 0 mm | - | - | - |
| 1787615824 | 28.33° C | 83% | 1002.6 hPa | 0 mm | - | - | - |
| 1787615223 | 28.33° C | 81% | 1002.6 hPa | 0 mm | - | - | - |
| 1787614623 | 28.33° C | 87% | 1002.5 hPa | 0 mm | - | - | - |
| 1787614023 | 28.33° C | 79% | 1002.6 hPa | 0 mm | - | - | - |
| 1787613423 | 28.33° C | 78% | 1002.5 hPa | 0 mm | - | - | - |
| 1787612824 | 27.78° C | 79% | 1002.3 hPa | 0 mm | - | - | - |
| 1787612223 | 27.78° C | 83% | 1002.1 hPa | 0 mm | - | - | - |
| 1787611624 | 27.22° C | 85% | 1002.1 hPa | 0 mm | - | - | - |
| 1787611024 | 27.22° C | 85% | 1001.8 hPa | 0 mm | - | - | - |
| 1787610424 | 27.22° C | 85% | 1001.8 hPa | 0 mm | - | - | - |
| 1787609824 | 26.67° C | 86% | 1001.7 hPa | 0 mm | - | - | - |
* Rain latest hour (hover to see other rain measurements)
** Current wind speed in m/s (hover to see current wind gust speed)